Regional Weather Roundup
Issued by NWS Cleveland, OH

Home | Current Version | Previous Version | Graphics & Text | Print | Product List | Glossary On
Versions: 1 2 3 4 5 6 7 8 9 10 11 12 13 14 15 16 17 18 19 20 21 22 23 24 25 26 27 28 29 30 31 32 33 34 35 36 37 38 39 40 41 42 43 44 45 46 47 48 49 50
000
ASUS41 KCLE 270912
RWRCLE
OHIO REGIONAL WEATHER ROUNDUP
NATIONAL WEATHER SERVICE WILMINGTON, OH
500 AM EDT TUE JUN 27 2017

NOTE: "FAIR" INDICATES FEW OR NO CLOUDS BELOW 12,000 FEET WITH NO
SIGNIFICANT WEATHER AND/OR OBSTRUCTIONS TO VISIBILITY.

OHZ001>008-015>018-024>027-034-035-043-044-271000-
   NORTHWEST OHIO

CITY           SKY/WX    TMP DP  RH WIND       PRES   REMARKS
DEFIANCE       FAIR      48  45  89 SW3       30.06R
FINDLAY        FAIR      51  45  79 W5        30.05R
TOLEDO EXPRESS FAIR      49  47  93 SW7       30.04R
TOLEDO EXEC    FAIR      52  47  83 W9        30.04S
LIMA           FAIR      52  48  86 W6        30.06S
$$

OHZ009>014-019>023-028>033-038-089-271000-
   NORTHEAST OHIO

CITY           SKY/WX    TMP DP  RH WIND       PRES   REMARKS
CLE-HOPKINS    FAIR      54  50  86 SW7       30.03R
CLE-LAKEFRONT  CLOUDY    57  51  80 SW12      30.00R
CUY CO. ARPT   NOT AVBL
LORAIN-ELYRIA  FAIR      53  45  74 W8        30.03R
ASHTABULA      LGT RAIN  53  52  96 SW8       30.01R
AKRON-CANTON   FAIR      54  48  80 W8        30.03R
WOOSTER        FAIR      53  49  86 W7        30.04R
MANSFIELD      FAIR      51  50  96 SW5       30.04S
YOUNGSTOWN     CLOUDY    53  49  86 SW6       30.01R
$$

OHZ042-051>053-060>062-070>072-077>081-271000-
  SOUTHWEST OHIO

CITY           SKY/WX    TMP DP  RH WIND       PRES   REMARKS
CINC-COVINGTON FAIR      51  49  92 S3        30.09S
CINC-LUNKEN    FAIR      52  51  97 CALM      30.10R
HAMILTON       FAIR      51  50  96 CALM      30.10R
DAYTON         FAIR      53  50  89 NW8       30.08S
WRIGHT-PAT AFB FAIR      52  51  95 CALM      30.07S
DAYTON GENERAL FAIR      55  49  80 W5        30.08R
WILMINGTON     FAIR      51  50  96 SW5       30.08S
$$

OHZ036-037-039>041-045>050-054>059-063>069-073>076-082>088-271000-
  CENTRAL AND SOUTHEAST OHIO

CITY           SKY/WX    TMP DP  RH WIND       PRES   REMARKS
COLUMBUS       FAIR      54  51  90 W5        30.05F
OSU AIRPORT    FAIR      52  51  97 W7        30.05F
BOLTON FIELD   FAIR      53  50  89 W5        30.06S
RICKENBACK AFB FAIR      51  50  95 W5        30.06S
NEWARK         FAIR      51  49  92 W5        30.05S
MARION         FAIR      53  49  86 W7        30.05S
LANCASTER      FAIR      51  50  96 CALM      30.06S
ZANESVILLE     FAIR      53  51  93 SW3       30.05S
NEW PHILLY     FAIR      53  51  93 CALM      30.04S
$$




USA.gov is the U.S. government's official web portal to all federal, state and local government web resources and services.